This demonstration page uses our WeatherBlox Daily Observations layout. Learn more.

39.92423, -83.80882

Hourly Observations for April 10, 2019

Temp ( °F °C ) Dew Point ( °F °C ) Humidity (%) Winds ( mph kmh ) Pressure ( in mb ) Visibility ( mi km ) Precip ( " mm )
12:56 am 00:56 Clear 46 7.8 35 1.7 66 66 Calm 29.87 1012 10 16.0934 0 0
1:56 am 01:56 Clear 46 7.8 34 1.1 63 63 SW 3 6 29.88 1012 10 16.0934 0 0
2:56 am 02:56 Clear 43 6.1 36 2.2 76 76 SSW 3 6 29.87 1011 10 16.0934 0 0
3:56 am 03:56 Clear 42 5.6 33 0.6 71 71 Calm 29.87 1012 10 16.0934 0 0
4:56 am 04:56 Cloudy 41 5 38 3.3 89 89 Calm 29.87 1012 10 16.0934 0 0
5:56 am 05:56 Clear 39 3.9 37 2.8 93 93 Calm 29.88 1012 10 16.0934 0 0
7:56 am 07:56 Sunny 45 7.2 36 2.2 71 71 NE 9 15 29.92 1013 10 16.0934 0 0
8:56 am 08:56 Sunny 47 8.3 38 3.3 71 71 NE 10 17 29.95 1014 10 16.0934 0 0
9:56 am 09:56 Sunny 49 9.4 37 2.8 64 64 ENE 12 19 29.96 1015 10 16.0934 0 0
10:56 am 10:56 Sunny 53 11.7 37 2.8 55 55 ENE 10 17 29.96 1015 10 16.0934 0 0
11:56 am 11:56 Sunny 54 12.2 37 2.8 53 53 NNE 12 19 29.96 1015 10 16.0934 0 0
12:56 pm 12:56 Mostly Cloudy 57 13.9 38 3.3 49 49 NNE 7 11 29.94 1014 10 16.0934 0 0
1:56 pm 13:56 Cloudy 59 15 37 2.8 44 44 N 7 11 29.95 1014 10 16.0934 0 0
2:56 pm 14:56 Cloudy 59 15 37 2.8 44 44 NNW 7 11 29.95 1014 10 16.0934 0 0
3:56 pm 15:56 Cloudy 59 15 38 3.3 46 46 NE 5 7 29.93 1013 10 16.0934 0 0.0254
4:56 pm 16:56 Mostly Cloudy 60 15.6 37 2.8 42 42 ENE 8 13 29.91 1013 10 16.0934 0 0
5:56 pm 17:56 Cloudy 57 13.9 39 3.9 51 51 ENE 15 24 29.91 1013 10 16.0934 0 0
6:56 pm 18:56 Cloudy 54 12.2 38 3.3 55 55 NE 16 26 29.92 1013 10 16.0934 0 0
7:56 pm 19:56 Mostly Sunny 50 10 36 2.2 59 59 NE 16 26 29.92 1013 10 16.0934 0 0
8:56 pm 20:56 Clear 48 8.9 36 2.2 63 63 NE 17 28 29.94 1014 10 16.0934 0 0
9:56 pm 21:56 Clear 45 7.2 36 2.2 71 71 ENE 17 28 29.94 1014 10 16.0934 0 0
10:56 pm 22:56 Clear 43 6.1 36 2.2 76 76 ENE 17 28 29.95 1014 10 16.0934 0 0
11:56 pm 23:56 Clear 43 6.1 35 1.7 74 74 ENE 18 30 29.93 1014 10 16.0934 0 0

Powered by AerisWeather